Flag for Spain

Past Weather in Jaén, Spain — Yesterday and Last 2 Weeks

Now
79 °F

Scattered clouds.


Feels Like: 80 °F
Forecast: 91 / 66 °F
Wind: 20 mph from Southeast

Location: Granada / Aeropuerto

Current Time: Jul 14, 2020 at 7:39:37 pm

Latest Report: Jul 14, 2020 at 7:00 pm


Visibility: N/A

Pressure: 29.98 "Hg (28.11 "Hg at 565m altitude)

Humidity: 51%

Dew Point: 59 °F

Location of JaénLocation

Past Weather in Jaén — Graph

°F

Jaén Temperature Yesterday

Maximum temperature yesterday: 99 °F (at 5:00 pm)
Minimum temperature yesterday: 66 °F (at 7:30 am)
Average temperature yesterday: 83 °F

High & Low Weather Summary for the Past Weeks

 TemperatureHumidityPressure
High106 °F (Jul 7, 5:30 pm)73% (Jul 1, 7:30 am)30.18 "Hg (Jul 1, 7:30 am)
Low61 °F (Jul 2, 7:00 am)10% (Jul 8, 3:00 pm)29.89 "Hg (Jun 30, 5:30 pm)
Average83 °F35%30.03 "Hg
* Reported Jun 29 6:00 pm — Jul 14 6:30 pm, Jaén. Weather by CustomWeather, © 2020

Note: Actual official high and low records may vary slightly from our data, if they occured in-between our weather recording intervals... More about our weather records

Jaén Weather History for the Previous 24 Hours

Scroll right to see more
 ConditionsComfort  
Time TempWeatherWind HumidityBarometerVisibility
6:30 pm
Tue, Jul 14
81 °FScattered clouds.15 mph48%29.95 "HgN/A
6:00 pm84 °FScattered clouds.14 mph37%29.95 "HgN/A
5:30 pm90 °FScattered clouds.16 mph29%29.92 "HgN/A
5:00 pm91 °FScattered clouds.15 mph30%29.92 "HgN/A
4:30 pm93 °FScattered clouds.16 mph26%29.92 "HgN/A
4:00 pm95 °FScattered clouds.12 mph25%29.92 "HgN/A
3:30 pm95 °FPassing clouds.5 mph23%29.95 "HgN/A
3:00 pm95 °FPassing clouds.5 mph25%29.95 "HgN/A
2:30 pm93 °FPassing clouds.5 mph26%29.98 "HgN/A
2:00 pm93 °FPassing clouds.6 mph26%29.98 "HgN/A
1:30 pm91 °FPassing clouds.3 mph28%29.98 "HgN/A
1:00 pm90 °FPassing clouds.5 mph29%30.01 "HgN/A
12:30 pm88 °FPassing clouds.5 mph33%30.01 "HgN/A
12:00 pm88 °FPassing clouds.1 mph33%30.01 "HgN/A
11:30 am86 °FPassing clouds.1 mph29%30.04 "HgN/A
11:00 am82 °FPassing clouds.2 mph42%30.04 "HgN/A
10:30 am81 °FPassing clouds.2 mph45%30.04 "HgN/A
10:00 am79 °FPassing clouds.5 mph51%30.04 "HgN/A
9:30 am75 °FPassing clouds.6 mph61%30.04 "HgN/A
9:00 am73 °FPassing clouds.3 mph61%30.07 "HgN/A
8:30 am75 °FPassing clouds.1 mph54%30.04 "HgN/A
8:00 am70 °FPassing clouds.No wind64%30.07 "HgN/A
7:30 am70 °FPassing clouds.No wind64%30.07 "HgN/A
7:00 am70 °FPassing clouds.No wind64%30.07 "HgN/A
6:30 am70 °FClear.No wind64%30.07 "Hg10 mi
6:00 am70 °FClear.2 mph64%30.04 "Hg10 mi
5:30 am72 °FClear.1 mph57%30.07 "Hg10 mi
5:00 am72 °FPassing clouds.3 mph61%30.07 "HgN/A
4:30 am75 °FClear.8 mph54%30.07 "Hg10 mi
4:00 am73 °FPassing clouds.8 mph57%30.07 "HgN/A
3:30 am73 °FClear.1 mph57%30.07 "Hg10 mi
2:30 am73 °FClear.2 mph57%30.07 "Hg10 mi
2:00 am75 °FClear.1 mph54%30.09 "Hg10 mi
1:30 am77 °FPassing clouds.8 mph51%30.09 "HgN/A
1:00 am79 °FPassing clouds.3 mph48%30.07 "HgN/A
12:30 am79 °FPassing clouds.2 mph48%30.07 "HgN/A
12:00 am81 °FPassing clouds.2 mph45%30.07 "HgN/A
11:30 pm
Mon, Jul 13
82 °FPassing clouds.8 mph40%30.07 "HgN/A
11:00 pm82 °FPassing clouds.16 mph40%30.07 "HgN/A
10:30 pm82 °FPassing clouds.16 mph40%30.04 "HgN/A
10:00 pm84 °FPassing clouds.14 mph37%30.04 "HgN/A
9:30 pm86 °FPassing clouds.14 mph35%30.01 "HgN/A
9:00 pm88 °FPassing clouds.14 mph31%30.01 "HgN/A
8:30 pm91 °FPassing clouds.9 mph30%30.01 "HgN/A
8:00 pm93 °FPassing clouds.12 mph28%30.01 "HgN/A
7:30 pm97 °FPassing clouds.8 mph23%29.98 "HgN/A
7:00 pm97 °FPassing clouds.5 mph23%29.98 "HgN/A
Weather by CustomWeather, © 2020

See weather overview